Location: LDNL
(36.4545°S, 141.6685°E)
Time: 21:56:15
(UTC+11:00)

Courier 1B Rocket - Pass Details

Date: 01 February 2023
Orbit: 920 x 1202 km, 28.2° (Epoch: 26 March)

Event Time Altitude Azimuth Distance (km) Brightness Sun altitude
Rises 06:22:36 0° 312° (NW) 4,071 - -5.7°
Exits shadow 06:23:56 - 315° (NW) 3,664 7.4 -5.5°
Reaches altitude 10° 06:25:48 10° 322° (NW) 3,125 7.1 -5.1°
Maximum altitude 06:32:24 30° 19° (NNE) 1,998 6.6 -3.9°
Drops below altitude 10° 06:38:57 10° 77° (ENE) 3,108 8.6 -2.7°
Sets 06:42:07 0° 86° (E) 4,045 9.5 -2.1°
